timestamp,waterbody_station,lease,latitude,longitude,deployment_start_date,deployment_end_date,sensor,depth,mooring,Temperature_degrees Celsius,Dissolved Oxygen_percent saturation,Salinity_practical salinity units
2019-09-17T00:00:00,Denas Pond-0193,193.0,46.00718,-60.98854,2018-10-30,2019-09-17,HOBO-10755219,2.0,fixed,16.582,,
2019-09-17T00:15:00,Denas Pond-0193,193.0,46.00718,-60.98854,2018-10-30,2019-09-17,HOBO-10755219,2.0,fixed,16.558,,
2019-09-17T00:30:00,Denas Pond-0193,193.0,46.00718,-60.98854,2018-10-30,2019-09-17,HOBO-10755219,2.0,fixed,16.582,,
2019-09-17T00:45:00,Denas Pond-0193,193.0,46.00718,-60.98854,2018-10-30,2019-09-17,HOBO-10755219,2.0,fixed,16.558,,
2019-09-17T01:00:00,Denas Pond-0193,193.0,46.00718,-60.98854,2018-10-30,2019-09-17,HOBO-10755219,2.0,fixed,16.534,,
2019-09-17T01:15:00,Denas Pond-0193,193.0,46.00718,-60.98854,2018-10-30,2019-09-17,HOBO-10755219,2.0,fixed,16.511,,
2019-09-17T01:30:00,Denas Pond-0193,193.0,46.00718,-60.98854,2018-10-30,2019-09-17,HOBO-10755219,2.0,fixed,16.463,,
2019-09-17T01:45:00,Denas Pond-0193,193.0,46.00718,-60.98854,2018-10-30,2019-09-17,HOBO-10755219,2.0,fixed,16.463,,
2019-09-17T02:00:00,Denas Pond-0193,193.0,46.00718,-60.98854,2018-10-30,2019-09-17,HOBO-10755219,2.0,fixed,16.439,,
2019-09-17T02:15:00,Denas Pond-0193,193.0,46.00718,-60.98854,2018-10-30,2019-09-17,HOBO-10755219,2.0,fixed,16.439,,
2019-09-17T02:30:00,Denas Pond-0193,193.0,46.00718,-60.98854,2018-10-30,2019-09-17,HOBO-10755219,2.0,fixed,16.439,,
2019-09-17T02:45:00,Denas Pond-0193,193.0,46.00718,-60.98854,2018-10-30,2019-09-17,HOBO-10755219,2.0,fixed,16.487,,
2019-09-17T03:00:00,Denas Pond-0193,193.0,46.00718,-60.98854,2018-10-30,2019-09-17,HOBO-10755219,2.0,fixed,16.463,,
2019-09-17T03:15:00,Denas Pond-0193,193.0,46.00718,-60.98854,2018-10-30,2019-09-17,HOBO-10755219,2.0,fixed,16.487,,
2019-09-17T03:30:00,Denas Pond-0193,193.0,46.00718,-60.98854,2018-10-30,2019-09-17,HOBO-10755219,2.0,fixed,16.463,,
2019-09-17T03:45:00,Denas Pond-0193,193.0,46.00718,-60.98854,2018-10-30,2019-09-17,HOBO-10755219,2.0,fixed,16.463,,
2019-09-17T04:00:00,Denas Pond-0193,193.0,46.00718,-60.98854,2018-10-30,2019-09-17,HOBO-10755219,2.0,fixed,16.463,,
2019-09-17T04:15:00,Denas Pond-0193,193.0,46.00718,-60.98854,2018-10-30,2019-09-17,HOBO-10755219,2.0,fixed,16.463,,
2019-09-17T04:30:00,Denas Pond-0193,193.0,46.00718,-60.98854,2018-10-30,2019-09-17,HOBO-10755219,2.0,fixed,16.511,,
2019-09-17T04:45:00,Denas Pond-0193,193.0,46.00718,-60.98854,2018-10-30,2019-09-17,HOBO-10755219,2.0,fixed,16.463,,
2019-09-17T05:00:00,Denas Pond-0193,193.0,46.00718,-60.98854,2018-10-30,2019-09-17,HOBO-10755219,2.0,fixed,16.511,,
2019-09-17T05:15:00,Denas Pond-0193,193.0,46.00718,-60.98854,2018-10-30,2019-09-17,HOBO-10755219,2.0,fixed,16.534,,
2019-09-17T05:30:00,Denas Pond-0193,193.0,46.00718,-60.98854,2018-10-30,2019-09-17,HOBO-10755219,2.0,fixed,16.487,,
2019-09-17T05:45:00,Denas Pond-0193,193.0,46.00718,-60.98854,2018-10-30,2019-09-17,HOBO-10755219,2.0,fixed,16.463,,
2019-09-17T06:00:00,Denas Pond-0193,193.0,46.00718,-60.98854,2018-10-30,2019-09-17,HOBO-10755219,2.0,fixed,16.487,,
2019-09-17T06:15:00,Denas Pond-0193,193.0,46.00718,-60.98854,2018-10-30,2019-09-17,HOBO-10755219,2.0,fixed,16.487,,
2019-09-17T06:30:00,Denas Pond-0193,193.0,46.00718,-60.98854,2018-10-30,2019-09-17,HOBO-10755219,2.0,fixed,16.487,,
2019-09-17T06:45:00,Denas Pond-0193,193.0,46.00718,-60.98854,2018-10-30,2019-09-17,HOBO-10755219,2.0,fixed,16.487,,
2019-09-17T07:00:00,Denas Pond-0193,193.0,46.00718,-60.98854,2018-10-30,2019-09-17,HOBO-10755219,2.0,fixed,16.487,,
2019-09-17T07:15:00,Denas Pond-0193,193.0,46.00718,-60.98854,2018-10-30,2019-09-17,HOBO-10755219,2.0,fixed,16.487,,
2019-09-17T07:30:00,Denas Pond-0193,193.0,46.00718,-60.98854,2018-10-30,2019-09-17,HOBO-10755219,2.0,fixed,16.534,,
2019-09-17T07:45:00,Denas Pond-0193,193.0,46.00718,-60.98854,2018-10-30,2019-09-17,HOBO-10755219,2.0,fixed,16.511,,
2019-09-17T08:00:00,Denas Pond-0193,193.0,46.00718,-60.98854,2018-10-30,2019-09-17,HOBO-10755219,2.0,fixed,16.487,,
2019-09-17T08:15:00,Denas Pond-0193,193.0,46.00718,-60.98854,2018-10-30,2019-09-17,HOBO-10755219,2.0,fixed,16.487,,
2019-09-17T08:30:00,Denas Pond-0193,193.0,46.00718,-60.98854,2018-10-30,2019-09-17,HOBO-10755219,2.0,fixed,16.487,,
2019-09-17T08:45:00,Denas Pond-0193,193.0,46.00718,-60.98854,2018-10-30,2019-09-17,HOBO-10755219,2.0,fixed,16.487,,
2019-09-17T09:00:00,Denas Pond-0193,193.0,46.00718,-60.98854,2018-10-30,2019-09-17,HOBO-10755219,2.0,fixed,16.487,,
2019-09-17T09:15:00,Denas Pond-0193,193.0,46.00718,-60.98854,2018-10-30,2019-09-17,HOBO-10755219,2.0,fixed,16.487,,
2019-09-17T09:30:00,Denas Pond-0193,193.0,46.00718,-60.98854,2018-10-30,2019-09-17,HOBO-10755219,2.0,fixed,16.487,,
2019-09-17T09:45:00,Denas Pond-0193,193.0,46.00718,-60.98854,2018-10-30,2019-09-17,HOBO-10755219,2.0,fixed,16.487,,
2019-09-17T10:00:00,Denas Pond-0193,193.0,46.00718,-60.98854,2018-10-30,2019-09-17,HOBO-10755219,2.0,fixed,16.487,,
2019-09-17T10:15:00,Denas Pond-0193,193.0,46.00718,-60.98854,2018-10-30,2019-09-17,HOBO-10755219,2.0,fixed,16.487,,
2019-09-17T10:30:00,Denas Pond-0193,193.0,46.00718,-60.98854,2018-10-30,2019-09-17,HOBO-10755219,2.0,fixed,16.487,,
2019-09-17T10:45:00,Denas Pond-0193,193.0,46.00718,-60.98854,2018-10-30,2019-09-17,HOBO-10755219,2.0,fixed,16.415,,
2019-09-17T11:00:00,Denas Pond-0193,193.0,46.00718,-60.98854,2018-10-30,2019-09-17,HOBO-10755219,2.0,fixed,16.392,,
2019-09-17T11:15:00,Denas Pond-0193,193.0,46.00718,-60.98854,2018-10-30,2019-09-17,HOBO-10755219,2.0,fixed,16.344,,
2019-09-17T11:30:00,Denas Pond-0193,193.0,46.00718,-60.98854,2018-10-30,2019-09-17,HOBO-10755219,2.0,fixed,16.368,,
2019-09-17T11:45:00,Denas Pond-0193,193.0,46.00718,-60.98854,2018-10-30,2019-09-17,HOBO-10755219,2.0,fixed,16.463,,
2019-09-17T12:00:00,Denas Pond-0193,193.0,46.00718,-60.98854,2018-10-30,2019-09-17,HOBO-10755219,2.0,fixed,16.439,,
2019-09-17T12:15:00,Denas Pond-0193,193.0,46.00718,-60.98854,2018-10-30,2019-09-17,HOBO-10755219,2.0,fixed,16.392,,
2019-09-17T12:30:00,Denas Pond-0193,193.0,46.00718,-60.98854,2018-10-30,2019-09-17,HOBO-10755219,2.0,fixed,16.463,,
2019-09-17T12:45:00,Denas Pond-0193,193.0,46.00718,-60.98854,2018-10-30,2019-09-17,HOBO-10755219,2.0,fixed,16.392,,
2019-09-17T13:00:00,Denas Pond-0193,193.0,46.00718,-60.98854,2018-10-30,2019-09-17,HOBO-10755219,2.0,fixed,16.392,,
2019-09-17T13:15:00,Denas Pond-0193,193.0,46.00718,-60.98854,2018-10-30,2019-09-17,HOBO-10755219,2.0,fixed,16.392,,
2019-09-17T13:30:00,Denas Pond-0193,193.0,46.00718,-60.98854,2018-10-30,2019-09-17,HOBO-10755219,2.0,fixed,16.439,,
2019-09-17T13:45:00,Denas Pond-0193,193.0,46.00718,-60.98854,2018-10-30,2019-09-17,HOBO-10755219,2.0,fixed,16.463,,
2019-09-17T14:00:00,Denas Pond-0193,193.0,46.00718,-60.98854,2018-10-30,2019-09-17,HOBO-10755219,2.0,fixed,16.439,,
